CW5306 Weather Reports


Display with metric or nautical units.
time (UTC)temp
F
wind
direction
speed
MPH
gust
MPH
rain 1hr
in
rain 24hr
in
rain mn
in
humidity
%
barometer
mb
20260905012729 82 83 9.0 24.0 0.00 0.07 0.03 64 1011.5
20260905012228 82 106 8.0 17.0 0.00 0.07 0.03 65 1011.5
20260905011729 82 66 11.0 16.0 0.00 0.07 0.03 64 1011.7
20260905011227 82 76 6.0 19.0 0.00 0.07 0.03 66 1011.7
20260905010733 82 74 10.0 21.0 0.00 0.07 0.03 67 1011.4
20260905010728 82 41 8.0 19.0 0.00 0.07 0.03 65 1011.6
20260905005728 83 75 6.0 21.0 0.00 0.07 0.03 65 1011.7
20260905005228 82 93 14.0 21.0 0.00 0.07 0.03 63 1011.6
20260905004728 82 78 10.0 21.0 0.00 0.07 0.03 64 1011.9
20260905004227 82 89 12.0 21.0 0.00 0.07 0.03 65 1011.4
20260905003728 83 77 12.0 20.0 0.00 0.07 0.03 62 1011.7
20260905003228 82 51 13.0 25.0 0.00 0.07 0.03 66 1011.7
20260905002958 83 78 13.0 20.0 0.00 0.07 0.03 64 1011.7
20260905002228 82 95 11.0 21.0 0.00 0.07 0.03 63 1011.8
20260905001729 83 85 11.0 21.0 0.00 0.07 0.03 65 1012.1
20260905001227 83 99 13.0 24.0 0.00 0.07 0.03 65 1011.9
20260905000727 83 97 8.0 24.0 0.00 0.07 0.03 65 1012.0
20260905000501 83 107 11.0 21.0 0.00 0.07 0.03 64 1012.2
20260904235727 83 116 9.0 21.0 0.00 0.07 0.03 65 1012.4
20260904235228 83 105 11.0 23.0 0.00 0.07 0.03 64 1012.4
20260904234728 83 70 13.0 23.0 0.00 0.07 0.03 63 1012.5
20260904234228 83 112 11.0 20.0 0.00 0.07 0.03 64 1012.6
20260904233959 83 83 12.0 24.0 0.00 0.07 0.03 63 1012.7
20260904233228 83 91 13.0 24.0 0.00 0.07 0.03 62 1012.7
20260904232959 83 89 15.0 21.0 0.00 0.07 0.03 63 1013.0
20260904232228 83 90 9.0 26.0 0.00 0.07 0.03 64 1012.7
20260904231733 83 83 13.0 24.0 0.00 0.07 0.03 67 1013.0
20260904231727 83 99 11.0 26.0 0.00 0.07 0.03 66 1013.0
20260904230727 83 99 8.0 24.0 0.00 0.07 0.03 70 1012.9
20260904230227 83 86 13.0 23.0 0.00 0.07 0.03 69 1012.9
20260904225728 83 52 9.0 23.0 0.00 0.07 0.03 68 1012.9
20260904225234 82 122 12.0 25.0 0.00 0.07 0.03 69 1013.0
20260904225228 83 84 11.0 25.0 0.00 0.07 0.03 69 1013.0
20260904224229 83 132 12.0 23.0 0.00 0.07 0.03 67 1013.1
20260904223727 83 77 8.0 24.0 0.00 0.07 0.03 68 1013.1
20260904223227 83 104 10.0 24.0 0.00 0.07 0.03 68 1013.2
20260904222727 83 61 8.0 23.0 0.00 0.07 0.03 68 1013.7
20260904222229 83 102 13.0 25.0 0.00 0.07 0.03 69 1013.1
20260904221727 82 96 13.0 26.0 0.00 0.07 0.03 70 1013.5
20260904221228 82 102 13.0 26.0 0.00 0.07 0.03 69 1013.3
20260904220728 83 77 10.0 24.0 0.00 0.07 0.03 68 1013.4
20260904220228 83 71 15.0 26.0 0.00 0.07 0.03 68 1013.5
20260904215729 83 79 12.0 26.0 0.00 0.07 0.03 69 1013.5
20260904215228 83 53 9.0 23.0 0.00 0.07 0.03 71 1013.5
20260904214728 83 102 14.0 23.0 0.00 0.07 0.03 71 1013.5
20260904214227 82 83 16.0 23.0 0.00 0.07 0.03 70 1013.6
20260904213727 82 93 16.0 29.0 0.00 0.07 0.03 71 1013.6
20260904213227 82 79 19.0 26.0 0.00 0.07 0.03 71 1013.2
20260904212729 82 75 14.0 26.0 0.00 0.07 0.03 72 1013.8
20260904212228 82 84 14.0 26.0 0.00 0.07 0.03 72 1013.6
20260904211729 82 46 8.0 26.0 0.00 0.07 0.03 72 1013.6
20260904211228 81 120 13.0 24.0 0.00 0.07 0.03 71 1013.6
20260904210727 82 84 14.0 24.0 0.00 0.07 0.03 71 1013.6
20260904210228 82 79 11.0 21.0 0.00 0.07 0.03 71 1014.0
20260904205727 82 72 11.0 23.0 0.00 0.07 0.03 72 1014.0
20260904205227 81 93 11.0 26.0 0.00 0.07 0.03 70 1013.6
20260904204728 81 59 16.0 26.0 0.00 0.07 0.03 71 1013.7
20260904204500 81 65 12.0 24.0 0.00 0.07 0.03 72 1013.9
20260904204336 81 77 12.0 21.0 0.00 0.07 0.03 73 1013.7
20260904203458 81 47 12.0 23.0 0.00 0.07 0.03 73 1013.7
20260904202727 80 84 13.0 23.0 0.00 0.07 0.03 71 1013.8
20260904202229 81 70 14.0 23.0 0.00 0.07 0.03 73 1013.8
20260904201959 81 87 11.0 23.0 0.00 0.07 0.03 74 1013.5
20260904201228 81 84 12.0 23.0 0.00 0.07 0.03 73 1013.7
20260904200730 80 88 9.0 23.0 0.00 0.07 0.03 73 1013.5
20260904200228 80 62 8.0 25.0 0.00 0.07 0.03 74 1013.5
20260904200001 80 69 17.0 25.0 0.00 0.07 0.03 73 1013.4
20260904195228 80 85 9.0 24.0 0.00 0.07 0.03 74 1013.6
20260904194727 80 84 11.0 21.0 0.00 0.07 0.03 74 1013.5
20260904194227 80 109 13.0 21.0 0.00 0.07 0.03 75 1013.5
20260904193727 80 40 9.0 28.0 0.00 0.07 0.03 74 1013.4
20260904193227 80 77 14.0 28.0 0.00 0.07 0.03 74 1013.5
20260904192727 80 78 9.0 25.0 0.00 0.07 0.03 74 1013.6
20260904192228 79 52 13.0 25.0 0.00 0.07 0.03 74 1013.6
20260904191728 79 65 18.0 26.0 0.00 0.07 0.03 73 1013.5
20260904191228 79 81 17.0 26.0 0.00 0.07 0.03 73 1013.9
20260904190727 79 95 9.0 28.0 0.00 0.07 0.03 72 1013.7
20260904190459 79 67 13.0 28.0 0.00 0.07 0.03 73 1013.5
20260904185959 79 92 11.0 23.0 0.00 0.07 0.03 72 1013.6
20260904185227 79 74 13.0 23.0 0.00 0.07 0.03 74 1013.5
20260904184727 78 65 11.0 23.0 0.00 0.07 0.03 76 1013.6
20260904184227 78 103 6.0 25.0 0.00 0.07 0.03 76 1013.4
20260904183727 78 82 11.0 25.0 0.00 0.07 0.03 75 1013.6
20260904183227 78 51 16.0 24.0 0.00 0.07 0.03 76 1013.4
20260904182727 78 69 11.0 24.0 0.00 0.07 0.03 77 1013.7
20260904182228 78 80 11.0 20.0 0.00 0.07 0.03 76 1013.2
20260904181728 78 69 11.0 25.0 0.00 0.07 0.03 76 1013.4
20260904181227 78 94 16.0 25.0 0.00 0.07 0.03 75 1013.2
20260904180727 78 61 11.0 24.0 0.00 0.07 0.03 77 1013.1
20260904180228 78 73 14.0 24.0 0.00 0.07 0.03 78 1013.1
20260904180107 77 68 13.0 26.0 0.00 0.07 0.03 77 1013.3
20260904175959 78 86 14.0 26.0 0.00 0.07 0.03 79 1013.3
20260904174727 77 81 11.0 24.0 0.00 0.07 0.03 79 1013.2
20260904174228 77 103 8.0 25.0 0.00 0.07 0.03 80 1013.3
20260904173728 76 113 8.0 25.0 0.00 0.07 0.03 80 1013.3
20260904173227 76 63 19.0 23.0 0.00 0.07 0.03 81 1013.0
20260904172727 76 113 9.0 21.0 0.00 0.07 0.03 81 1013.1
20260904172459 76 97 5.0 20.0 0.00 0.07 0.03 80 1013.1
20260904171959 76 95 13.0 28.0 0.00 0.07 0.03 81 1013.0
20260904171229 76 58 10.0 28.0 0.00 0.07 0.03 82 1012.9
20260904170728 76 59 10.0 21.0 0.00 0.07 0.03 83 1012.8
20260904170459 76 105 8.0 21.0 0.00 0.07 0.03 83 1012.8
20260904165728 76 109 5.0 21.0 0.00 0.07 0.03 80 1012.6
20260904165228 76 101 8.0 21.0 0.00 0.07 0.03 79 1012.8
20260904164728 76 64 9.0 21.0 0.00 0.07 0.03 79 1012.6
20260904164229 76 93 9.0 17.0 0.01 0.07 0.03 79 1012.7
20260904163733 76 128 11.0 19.0 0.01 0.07 0.03 79 1012.5
20260904163728 76 131 6.0 17.0 0.01 0.07 0.03 79 1012.5
20260904162728 75 106 7.0 23.0 0.01 0.07 0.03 80 1012.8
20260904162500 75 110 8.0 23.0 0.01 0.07 0.03 83 1012.7
20260904161728 74 73 11.0 24.0 0.01 0.07 0.03 84 1012.6
20260904161233 74 96 11.0 24.0 0.01 0.08 0.03 85 1012.7
20260904161229 74 81 11.0 17.0 0.01 0.08 0.03 86 1012.6
20260904160227 74 90 11.0 20.0 0.01 0.08 0.03 86 1012.6
20260904155727 74 115 9.0 20.0 0.01 0.08 0.03 86 1012.8
20260904155228 74 109 8.0 25.0 0.01 0.08 0.03 86 1012.5
20260904154728 76 118 8.0 25.0 0.01 0.07 0.03 84 1012.8
20260904154228 77 91 12.0 21.0 0.00 0.07 0.02 83 1012.5
20260904153728 77 126 4.0 17.0 0.00 0.07 0.02 81 1012.3
20260904153227 77 71 9.0 21.0 0.00 0.07 0.02 81 1012.3
20260904152727 77 116 9.0 21.0 0.00 0.07 0.02 81 1012.3
20260904152228 76 94 8.0 17.0 0.00 0.07 0.02 82 1012.5
20260904151728 76 98 4.0 19.0 0.00 0.07 0.02 82 1012.7
20260904151228 76 79 5.0 19.0 0.00 0.07 0.02 83 1012.6
20260904150727 75 136 5.0 17.0 0.00 0.07 0.02 84 1012.6
20260904150227 75 110 7.0 16.0 0.00 0.07 0.02 87 1012.6
20260904145959 75 48 7.0 11.0 0.00 0.07 0.02 87 1012.5
20260904145458 75 117 7.0 11.0 0.00 0.07 0.02 87 1012.6
20260904144728 75 100 4.0 10.0 0.00 0.07 0.02 87 1012.6
20260904144459 74 106 4.0 13.0 0.00 0.07 0.02 86 1012.5
20260904143727 74 108 5.0 16.0 0.00 0.07 0.02 86 1012.7
20260904143228 74 69 7.0 24.0 0.00 0.07 0.02 85 1012.6
20260904142729 74 114 11.0 24.0 0.00 0.07 0.02 85 1012.6
20260904142227 75 135 8.0 24.0 0.00 0.07 0.02 85 1012.7
20260904141727 76 122 11.0 20.0 0.00 0.07 0.02 84 1012.3
20260904141500 76 104 5.0 20.0 0.00 0.07 0.02 82 1012.4
20260904140728 76 98 6.0 17.0 0.00 0.07 0.02 82 1012.5
20260904140227 75 97 8.0 19.0 0.00 0.07 0.02 83 1012.5
20260904135727 76 93 13.0 20.0 0.00 0.07 0.02 85 1012.2
20260904135229 75 103 5.0 21.0 0.00 0.07 0.02 85 1012.4
20260904134727 75 128 14.0 21.0 0.00 0.07 0.02 85 1012.4
20260904134228 74 73 7.0 13.0 0.00 0.07 0.02 87 1012.6
20260904133727 74 112 5.0 14.0 0.00 0.07 0.02 87 1012.6
20260904133228 74 88 7.0 15.0 0.00 0.07 0.02 88 1012.6
20260904133001 74 48 9.0 16.0 0.00 0.07 0.02 88 1012.6
20260904132228 74 97 11.0 17.0 0.00 0.07 0.02 88 1012.4
20260904131727 74 78 9.0 26.0 0.00 0.07 0.02 89 1012.5
20260904131228 74 93 6.0 26.0 0.00 0.07 0.02 89 1012.6
20260904130728 74 71 14.0 24.0 0.01 0.07 0.02 89 1012.5
20260904130459 73 81 8.0 21.0 0.02 0.07 0.02 90 1012.9
20260904125728 73 75 10.0 25.0 0.02 0.07 0.02 89 1012.7
20260904125227 73 57 12.0 31.0 0.02 0.07 0.02 89 1012.9
20260904124727 73 96 6.0 31.0 0.02 0.07 0.02 88 1012.8
20260904124500 73 106 15.0 24.0 0.02 0.07 0.02 89 1013.0
20260904123728 73 99 11.0 17.0 0.02 0.07 0.02 89 1013.1
20260904123227 73 130 8.0 14.0 0.02 0.07 0.02 90 1012.9
20260904122959 73 75 5.0 14.0 0.02 0.07 0.02 90 1013.2
20260904122228 73 115 8.0 17.0 0.02 0.07 0.02 90 1013.0
20260904121728 73 105 9.0 26.0 0.02 0.07 0.02 89 1013.2
20260904121228 74 121 6.0 28.0 0.02 0.07 0.02 89 1013.5
20260904120729 74 130 9.0 28.0 0.00 0.06 0.01 87 1013.5
20260904120229 76 95 13.0 20.0 0.00 0.06 0.00 85 1013.3
20260904115728 76 80 13.0 20.0 0.00 0.06 0.00 82 1013.2
20260904115228 77 156 6.0 21.0 0.00 0.06 0.00 80 1013.0
20260904114728 77 110 9.0 21.0 0.00 0.06 0.00 80 1013.2
20260904114227 77 68 12.0 19.0 0.00 0.06 0.00 79 1013.2
20260904113727 77 76 8.0 19.0 0.00 0.06 0.00 80 1013.3
20260904113227 76 132 9.0 19.0 0.00 0.06 0.00 81 1013.1
20260904112727 76 66 13.0 19.0 0.00 0.06 0.00 81 1013.2
20260904112228 76 121 9.0 17.0 0.00 0.06 0.00 81 1013.2
20260904111728 76 45 12.0 16.0 0.00 0.06 0.00 81 1013.3
20260904111228 76 96 9.0 16.0 0.00 0.06 0.00 81 1013.4
20260904110715 76 128 9.0 20.0 0.00 0.06 0.00 82 1013.4
20260904110215 75 119 6.0 25.0 0.00 0.06 0.00 82 1013.4
20260904105715 76 156 10.0 25.0 0.00 0.06 0.00 82 1013.4
20260904105216 76 85 12.0 26.0 0.00 0.06 0.00 83 1013.6
20260904104715 77 87 10.0 26.0 0.00 0.06 0.00 83 1013.6
20260904104216 77 90 8.0 23.0 0.00 0.06 0.00 79 1013.6
20260904103715 77 58 9.0 23.0 0.00 0.06 0.00 80 1013.5
20260904103203 77 74 11.0 24.0 0.00 0.06 0.00 78 1013.8
20260904102703 77 156 6.0 24.0 0.00 0.06 0.00 78 1013.7
20260904102203 77 91 5.0 20.0 0.00 0.06 0.00 77 1013.9
20260904101934 77 88 9.0 19.0 0.00 0.06 0.00 78 1014.0
20260904101435 77 86 11.0 19.0 0.00 0.06 0.00 78 1013.7
20260904100703 77 99 13.0 19.0 0.00 0.06 0.00 78 1013.7
20260904100203 77 109 8.0 19.0 0.00 0.06 0.00 79 1014.1
20260904095703 77 119 8.0 23.0 0.00 0.06 0.06 79 1013.9
20260904095151 77 90 7.0 23.0 0.00 0.06 0.06 78 1014.1
20260904094652 77 101 9.0 19.0 0.00 0.06 0.06 78 1014.2
20260904094153 77 104 11.0 23.0 0.00 0.06 0.06 79 1014.1
20260904093658 77 79 8.0 17.0 0.00 0.06 0.06 79 1014.2
20260904093652 77 69 10.0 23.0 0.00 0.06 0.06 79 1014.1
20260904092924 77 70 11.0 23.0 0.00 0.06 0.06 78 1014.3
20260904092152 77 89 13.0 23.0 0.00 0.06 0.06 79 1014.2
20260904091639 77 87 8.0 20.0 0.00 0.06 0.06 81 1014.2
20260904091139 77 89 13.0 19.0 0.00 0.06 0.06 80 1014.4
20260904090641 77 119 6.0 19.0 0.00 0.06 0.06 80 1014.3
20260904090140 77 91 7.0 21.0 0.00 0.06 0.06 80 1014.4
20260904085641 77 80 14.0 24.0 0.00 0.06 0.06 79 1014.5
20260904085140 77 132 8.0 24.0 0.00 0.06 0.06 79 1014.2
20260904084911 77 85 9.0 21.0 0.01 0.06 0.06 79 1014.5
20260904084127 77 94 11.0 24.0 0.04 0.06 0.06 80 1014.5
20260904083627 77 72 9.0 21.0 0.04 0.06 0.06 79 1014.4
20260904083127 77 74 10.0 21.0 0.04 0.06 0.06 80 1014.7
20260904082629 77 76 8.0 20.0 0.04 0.06 0.06 79 1014.8
20260904082128 76 101 13.0 20.0 0.04 0.06 0.06 80 1014.6
20260904081627 76 99 5.0 19.0 0.04 0.06 0.06 82 1014.9
20260904081129 76 79 13.0 19.0 0.04 0.06 0.06 82 1015.1
20260904080629 76 92 6.0 20.0 0.04 0.05 0.05 84 1014.8
20260904080358 76 116 7.0 20.0 0.04 0.05 0.05 85 1014.9
20260904075628 76 88 4.0 19.0 0.04 0.05 0.05 85 1015.0
20260904075128 76 89 5.0 23.0 0.04 0.05 0.05 84 1015.0
20260904074627 77 95 12.0 23.0 0.04 0.05 0.05 83 1015.1
20260904074127 78 47 10.0 19.0 0.00 0.01 0.01 80 1014.9
20260904073628 78 105 8.0 19.0 0.00 0.01 0.01 79 1014.9
20260904073128 78 100 6.0 19.0 0.00 0.01 0.01 78 1014.7
20260904072627 78 73 6.0 19.0 0.00 0.01 0.01 77 1014.8
20260904072129 78 79 6.0 16.0 0.00 0.01 0.01 79 1014.9
20260904071627 78 90 10.0 16.0 0.00 0.01 0.01 79 1014.7
20260904071128 78 186 5.0 21.0 0.00 0.01 0.01 80 1014.4
20260904070628 78 39 9.0 21.0 0.00 0.01 0.01 79 1014.4
20260904070127 78 96 12.0 19.0 0.00 0.01 0.01 77 1014.4
20260904065629 78 121 7.0 19.0 0.00 0.01 0.01 76 1014.3
20260904065128 78 46 6.0 17.0 0.00 0.01 0.01 76 1014.2
20260904064627 78 96 8.0 21.0 0.00 0.01 0.01 76 1014.2
20260904064130 78 112 12.0 20.0 0.00 0.01 0.01 76 1014.1
20260904063628 78 87 10.0 19.0 0.00 0.01 0.01 76 1014.2
20260904063128 78 92 11.0 19.0 0.00 0.01 0.01 76 1014.1
20260904062859 78 111 10.0 20.0 0.00 0.01 0.01 75 1014.2
20260904062359 78 101 10.0 20.0 0.00 0.01 0.01 76 1014.3
20260904061900 79 126 9.0 19.0 0.00 0.01 0.01 77 1014.1
20260904061736 78 103 9.0 19.0 0.00 0.01 0.01 76 1014.4
20260904060627 78 90 9.0 21.0 0.00 0.01 0.01 76 1014.4
20260904060127 78 70 11.0 21.0 0.00 0.01 0.01 76 1014.1
20260904055858 79 100 7.0 17.0 0.00 0.01 0.01 77 1014.0
20260904055116 79 120 10.0 21.0 0.00 0.01 0.01 77 1014.0
20260904054846 78 63 9.0 21.0 0.00 0.01 0.01 77 1014.1
20260904054115 79 41 6.0 20.0 0.00 0.01 0.01 77 1013.8
20260904053616 79 123 9.0 20.0 0.00 0.01 0.01 78 1013.8
20260904053117 79 107 9.0 21.0 0.00 0.01 0.01 77 1013.7
20260904052615 79 96 6.0 21.0 0.00 0.01 0.01 77 1013.9
20260904052116 79 75 10.0 20.0 0.00 0.01 0.01 77 1013.7
20260904051615 79 84 9.0 20.0 0.00 0.01 0.01 75 1013.6
20260904051347 79 58 10.0 21.0 0.00 0.01 0.01 75 1013.4
20260904050616 79 128 9.0 21.0 0.00 0.01 0.01 76 1013.4
20260904050116 79 126 14.0 19.0 0.00 0.01 0.01 75 1013.7
20260904045846 79 84 9.0 21.0 0.00 0.01 0.01 77 1013.5
20260904045336 79 99 5.0 21.0 0.00 0.01 0.01 76 1013.4
20260904044834 79 49 11.0 19.0 0.00 0.01 0.01 76 1013.4
20260904044104 79 99 8.0 19.0 0.00 0.01 0.01 76 1013.2
20260904043835 79 71 10.0 21.0 0.00 0.01 0.01 76 1013.5
20260904043105 78 105 8.0 21.0 0.00 0.01 0.01 77 1013.3
20260904042604 78 72 10.0 20.0 0.00 0.01 0.01 79 1013.2
20260904042104 78 58 8.0 19.0 0.00 0.01 0.01 80 1013.1
20260904041557 79 68 7.0 21.0 0.00 0.01 0.01 78 1013.0
20260904041552 79 111 13.0 19.0 0.00 0.01 0.01 79 1013.2
20260904040552 79 26 11.0 21.0 0.00 0.01 0.01 78 1013.1
20260904040052 79 54 13.0 21.0 0.00 0.01 0.01 78 1013.1
20260904035551 79 54 9.0 19.0 0.00 0.01 0.01 78 1012.9
20260904035051 79 102 13.0 24.0 0.00 0.01 0.01 77 1012.8
20260904034552 79 116 16.0 24.0 0.00 0.01 0.01 76 1012.9
20260904034040 79 95 11.0 20.0 0.00 0.01 0.01 75 1012.8
20260904033540 79 119 5.0 23.0 0.00 0.01 0.01 76 1012.6
20260904033040 78 119 16.0 23.0 0.00 0.01 0.01 77 1012.6
20260904032541 78 100 9.0 24.0 0.00 0.01 0.01 79 1012.7
20260904032039 79 39 10.0 24.0 0.00 0.01 0.01 80 1013.0
20260904031540 79 103 13.0 20.0 0.00 0.01 0.01 79 1012.9
20260904031041 78 102 12.0 24.0 0.00 0.01 0.01 79 1013.1
20260904030758 78 92 10.0 24.0 0.00 0.01 0.01 79 1012.8
20260904030027 78 76 12.0 20.0 0.00 0.01 0.01 80 1012.9
20260904025528 78 97 8.0 23.0 0.00 0.01 0.01 80 1012.9
20260904025028 78 81 13.0 23.0 0.00 0.01 0.01 79 1013.0
20260904024528 78 79 9.0 24.0 0.00 0.01 0.01 80 1013.2
20260904024259 78 115 10.0 24.0 0.00 0.01 0.01 80 1012.6
20260904023527 78 108 9.0 23.0 0.00 0.01 0.01 82 1012.9
20260904023027 77 98 4.0 17.0 0.00 0.01 0.01 85 1013.0
20260904022528 77 125 6.0 11.0 0.00 0.01 0.01 87 1013.2
20260904022028 76 136 6.0 11.0 0.00 0.01 0.01 88 1013.3
20260904021528 76 103 4.0 19.0 0.00 0.01 0.01 88 1013.5
20260904021028 76 164 6.0 19.0 0.00 0.01 0.01 88 1013.4
20260904020759 76 102 6.0 16.0 0.00 0.01 0.01 88 1013.5
20260904020027 76 128 10.0 20.0 0.00 0.01 0.01 88 1013.5
20260904015541 77 83 10.0 21.0 0.00 0.01 0.01 86 1013.7
20260904015535 76 118 8.0 20.0 0.00 0.01 0.01 87 1013.7
20260904015529 76 93 6.0 20.0 0.00 0.01 0.01 87 1013.8